Airfield :
LOGIN :

Register | Disclaimer

   EN    FR    IT 

 










Legend :    VFR   Marginal VFR   IFR   Intensive IFR   Very Intensive IFR
Visi :
Ceiling :
>= 8 km
>= 3000ft
5 to 8 km
1000 to 3000 ft
1500m to 5 km
500 to 1000 ft
800 to 1500m
200 to 500 ft
< 800m
< 200 ft
Symbols :   Thunderstorms  Fog  Heavy snow  Heavy precipitations  Wind > 20 kt
SIGMETs :     Misc.  Thunderstorms  Icing  Turbulence  Mountain Waves  Volcanic Ashes







- Airport Elevation : 1367 ft
- IATA code : FDH


EDNY - Friedrichshafen

CURRENT METAR :
  • 111950Z 04003KT 9999 FEW055 M01/M02 Q1023

EXPIRED METARs :
  • 111920Z 03002KT CAVOK M00/M01 Q1023
  • 111850Z 07003KT 9999 FEW039 01/M01 Q1023
  • 111820Z 06002KT 9999 SCT039 OVC075 01/M01 Q1023
  • 111750Z 05003KT CAVOK 01/M02 Q1023
  • 111720Z 00000KT 9999 BKN065 01/M01 Q1023

TAF TAF EDNY
Valid from the 11 at 18:00 until the 12 at 18:00 UTC


111700Z 1118/1218 VRB03KT 9999 SCT035
PROB30
TEMPO 1200/1208 1200 BCFG
BECMG 1208/1210 04007KT
No reported NOTAMs for that airfield.



MET'MAP, your aeronautical weather chart ! - Copyright ORBIFLY December 2007 - Disclaimer

ORBIFLY MET'MAP TEAM :

Programming & Development : Alexandra Zaïnal
Concept & Development : Baudouin d'Aumeries
Co-Development & Prog : Marc-Olivier Méhu
Technical & hardware support : Manuel Goepfert

Contact : metmap@orbifly.com




SOURCES & CREDITS :

   NOAA